Location: ?????????
(38.5999°N, 22.7695°E)
Time: 04:49:24
(UTC+00:00)

PAYLOAD A - Pass Details

Date: 12 August 2024
Orbit: 690 x 831 km, 98.5° (Epoch: 09 September)

Event Time Altitude Azimuth Distance (km) Brightness Sun altitude
Rises 02:02:22 0° 15° (NNE) 3,198 8.1 -17.7°
Reaches altitude 10° 02:04:43 10° 18° (NNE) 2,248 7.2 -17.3°
Maximum altitude 02:09:37 68° 102° (ESE) 772 4.1 -16.6°
Enters shadow 02:13:59 12° 185° (S) 2,028 5.8 -15.9°
